This demonstration page uses our WeatherBlox Daily Observations layout. Learn more.

Left ArrowRight Arrow

36.17497, -115.13722

Hourly Observations for June 28, 2019

Temp ( °F °C ) Dew Point ( °F °C ) Humidity (%) Winds ( mph kmh ) Pressure ( in mb ) Visibility ( mi km ) Precip ( " mm )
12:53 am 00:53 Clear 85 29.4 30 -1.1 14 14 SSW 9 15 29.84 1011 10 16 0.00 0.00
1:53 am 01:53 Clear 83 28.3 31 -0.6 15 15 S 8 13 29.85 1011 10 16 0.00 0.00
2:53 am 02:53 Clear 80 26.7 33 0.6 18 18 S 8 13 29.85 1011 10 16 0.00 0.00
3:53 am 03:53 Clear 78 25.6 32 0 19 19 SE 7 11 29.86 1011 10 16 0.00 0.00
4:53 am 04:53 Clear 77 25 32 0 19 19 ESE 5 7 29.88 1012 10 16 0.00 0.00
5:53 am 05:53 Sunny 74 23.3 33 0.6 22 22 SE 6 9 29.90 1013 10 16 0.00 0.00
6:53 am 06:53 Sunny 78 25.6 34 1.1 20 20 ESE 3 6 29.91 1013 10 16 0.00 0.00
7:53 am 07:53 Sunny 82 27.8 35 1.7 18 18 ESE 3 6 29.92 1013 10 16 0.00 0.00
8:53 am 08:53 Sunny 86 30 35 1.7 16 16 ESE 8 13 29.93 1014 10 16 0.00 0.00
9:53 am 09:53 Sunny 89 31.7 36 2.2 15 15 SE 12 19 29.92 1013 10 16 0.00 0.00
10:53 am 10:53 Sunny 93 33.9 33 0.6 12 12 SE 17 28 29.91 1013 10 16 0.00 0.00
11:53 am 11:53 Sunny 95 35 36 2.2 13 13 S 15 24 29.90 1012 10 16 0.00 0.00
12:53 pm 12:53 Sunny 97 36.1 31 -0.6 10 10 SSW 15 24 29.88 1012 10 16 0.00 0.00
1:53 pm 13:53 Sunny 99 37.2 29 -1.7 8 8 SSW 12 19 29.86 1011 10 16 0.00 0.00
2:53 pm 14:53 Sunny 99 37.2 30 -1.1 9 9 SSW 10 17 29.85 1011 10 16 0.00 0.00
3:53 pm 15:53 Sunny 101 38.3 28 -2.2 8 8 SSW 13 20 29.81 1010 10 16 0.00 0.00
4:22 pm 16:22 Sunny 100 37.8 27 -2.8 7 7 WSW 8 13 29.64 1004 10 16 0.00 0.00
4:53 pm 16:53 Sunny 100 37.8 26 -3.3 7 7 WSW 17 28 29.80 1009 10 16 0.00 0.00
5:53 pm 17:53 Sunny 99 37.2 24 -4.4 7 7 W 14 22 29.80 1009 10 16 0.00 0.00
6:53 pm 18:53 Sunny 98 36.7 23 -5 7 7 WSW 12 19 29.80 1009 10 16 0.00 0.00
7:53 pm 19:53 Sunny 95 35 19 -7.2 6 6 WSW 13 20 29.80 1009 10 16 0.00 0.00
8:53 pm 20:53 Clear 93 33.9 19 -7.2 7 7 W 10 17 29.82 1010 10 16 0.00 0.00
9:53 pm 21:53 Clear 91 32.8 22 -5.6 8 8 W 6 9 29.83 1010 10 16 0.00 0.00
10:53 pm 22:53 Clear 89 31.7 24 -4.4 9 9 SW 6 9 29.83 1010 10 16 0.00 0.00
11:53 pm 23:53 Clear 87 30.6 26 -3.3 11 11 SW 9 15 29.85 1011 10 16 0.00 0.00

Powered by AerisWeather